Weather History for KBED - November, 2011

Change the Weather History Date:

Wednesday, November 9, 2011

  Actual Average Record
Temperature  
Mean Temperature 54 °F -  
Max Temperature 69 °F 52 °F 73 °F (1975)
Min Temperature 39 °F 33 °F 15 °F (1992)
Degree Days  
Heating Degree Days 11    
Growing Degree Days 4 (Base 50)    
Moisture  
Dew Point 45 °F    
Average Humidity 86    
Maximum Humidity 100    
Minimum Humidity 53    
Precipitation  
Precipitation 0.00 in - - ()
Sea Level Pressure  
Sea Level Pressure 30.18 in    
Wind  
Wind Speed 2 mph (South)    
Max Wind Speed 10 mph    
Max Gust Speed -    
Visibility 6 miles    
Events      
Averages and records for this station are not official NWS values.
T = Trace of Precipitation, MM = Missing Value Source: NWS Daily Summary

Daily Weather History Graph

Daily Weather History Graph

Search for Another Location

Airport or City:

Trip Planner

Search our weather history database for the weather conditions in past years. The results will help you decide how hot, cold, wet, or windy it might be!

Date:

Astronomy

Nov. 09, 2011 Rise Set
Actual Time 6:28 AM EST 4:29 PM EST
Civil Twilight 5:58 AM EST 4:58 PM EST
Nautical Twilight 5:24 AM EST 5:32 PM EST
Astronomical Twilight 4:51 AM EST 6:05 PM EST
Moon 3:38 PM EST (11/9) 5:20 AM EST (11/9)
Length of Visible Light 11h 00m
Length of Day
10h 00m
Waxing Gibbous, 99% of the Moon is Illuminated
Nov 9
Waxing Gibbous
Nov 10
Full
Nov 18
Last Quarter
Nov 25
New
Dec 2
First Quarter

Hourly Weather History & Observations

Time (EST) Temp. Dew Point Humidity Pressure Visibility Wind Dir Wind Speed Gust Speed Precip Events Conditions
12:12 AM 44.6 °F 44.6 °F 100% 30.21 in 3.0 mi Calm Calm - N/A   Clear
12:56 AM 44.1 °F 43.0 °F 96% 30.24 in 4.0 mi Calm Calm - N/A   Clear
1:48 AM 42.8 °F 41.0 °F 93% 30.20 in 1.5 mi Calm Calm - N/A   Clear
1:56 AM 42.8 °F 42.8 °F 100% 30.20 in 1.0 mi Calm Calm - N/A   Clear
2:06 AM 42.8 °F 41.0 °F 93% 30.20 in 4.0 mi Calm Calm - N/A   Clear
2:56 AM 43.0 °F 41.0 °F 93% 30.24 in 5.0 mi Calm Calm - N/A   Clear
3:56 AM 41.0 °F 39.9 °F 96% 30.24 in 0.8 mi Calm Calm - N/A   Clear
4:06 AM 39.2 °F 39.2 °F 100% 30.19 in 2.0 mi Calm Calm - N/A   Clear
4:14 AM 41.0 °F 39.2 °F 93% 30.20 in 4.0 mi Calm Calm - N/A   Clear
4:56 AM 39.9 °F 39.9 °F 100% 30.23 in 5.0 mi Calm Calm - N/A   Clear
5:15 AM 41.0 °F 39.2 °F 93% 30.18 in 1.8 mi Calm Calm - N/A   Clear
5:24 AM 39.2 °F 39.2 °F 100% 30.18 in 5.0 mi Calm Calm - N/A   Clear
5:41 AM 39.2 °F 39.2 °F 100% 30.18 in 2.5 mi Calm Calm - N/A   Partly Cloudy
5:56 AM 39.0 °F 39.0 °F 100% 30.22 in 5.0 mi Calm Calm - N/A   Scattered Clouds
6:12 AM 39.2 °F 39.2 °F 100% 30.18 in 5.0 mi Calm Calm - N/A   Mostly Cloudy
6:19 AM 39.2 °F 39.2 °F 100% 30.18 in 2.5 mi Calm Calm - N/A   Scattered Clouds
6:28 AM 39.2 °F 37.4 °F 93% 30.19 in 5.0 mi Calm Calm - N/A   Partly Cloudy
6:42 AM 39.2 °F 39.2 °F 100% 30.20 in 2.5 mi Calm Calm - N/A   Clear
6:56 AM 39.0 °F 37.9 °F 96% 30.25 in 4.0 mi Calm Calm - N/A   Clear
7:56 AM 45.0 °F 44.1 °F 97% 30.26 in 4.0 mi Calm Calm - N/A   Clear
8:56 AM 54.0 °F 48.9 °F 83% 30.25 in 8.0 mi Calm Calm - N/A   Clear
9:56 AM 61.0 °F 51.1 °F 70% 30.24 in 10.0 mi Calm Calm - N/A   Clear
10:56 AM 64.9 °F 48.9 °F 56% 30.21 in 10.0 mi SSW 4.6 mph - N/A   Clear
11:56 AM 68.0 °F 51.1 °F 55% 30.19 in 10.0 mi SW 8.1 mph - N/A   Clear
12:56 PM 69.1 °F 51.1 °F 53% 30.16 in 10.0 mi SSW 8.1 mph - N/A   Clear
1:56 PM 69.1 °F 51.1 °F 53% 30.14 in 10.0 mi WSW 6.9 mph - N/A   Clear
2:56 PM 69.1 °F 51.1 °F 53% 30.13 in 10.0 mi South 6.9 mph - N/A   Clear
3:56 PM 66.0 °F 50.0 °F 56% 30.12 in 10.0 mi South 10.4 mph - N/A   Clear
4:56 PM 61.0 °F 46.9 °F 60% 30.13 in 10.0 mi South 8.1 mph - N/A   Clear
5:56 PM 57.9 °F 46.0 °F 65% 30.14 in 10.0 mi South 8.1 mph - N/A   Clear
6:56 PM 55.9 °F 48.9 °F 77% 30.15 in 10.0 mi South 9.2 mph - N/A   Clear
7:56 PM 54.0 °F 51.1 °F 90% 30.14 in 10.0 mi South 8.1 mph - N/A   Clear
8:56 PM 53.1 °F 51.1 °F 93% 30.14 in 10.0 mi South 8.1 mph - N/A   Partly Cloudy
9:56 PM 53.1 °F 52.0 °F 96% 30.12 in 10.0 mi South 4.6 mph - N/A   Overcast
10:56 PM 51.1 °F 51.1 °F 100% 30.10 in 8.0 mi Calm Calm - N/A   Overcast
11:56 PM 53.1 °F 52.0 °F 96% 30.09 in 8.0 mi SSE 4.6 mph - N/A   Overcast